Hourly Data Report for October 29, 2014

All times are specified in Local Standard Time (LST). Add 1 hour to adjust for Daylight Saving Time where and when it is observed.

HALL BEACH A
NUNAVUT

68°46'33.000" N
81°14'33.000" W
9.10 m
2402354
71293
YUX

Download Data

Hourly Data (October 2014)
Hourly Data Report for October 29, 2014
Temp Definition
°C
Dew Point Temp Definition
°C
Rel Hum Definition
%
Wind Dir Definition
10's deg

Wind Spd Definition
km/h
Visibility Definition
km
Stn Press Definition
kPa
Hmdx Definition


Wind Chill Definition


Weather Definition


TIME
00:00 Legend Double Dagger -12.5 -14.1 88 31 45 8.1 100.83   -25 Fog
01:00 Legend Double Dagger -12.2 -13.8 88 32 43 4.8 100.87   -24 Fog
02:00 Legend Double Dagger -12.8 -14.3 89 32 46 6.4 100.88   -25 Fog
03:00 Legend Double Dagger -13.1 -14.7 88 32 43 8.1 100.89   -25 Fog
04:00 Legend Double Dagger -13.5 -15.1 88 32 37 16.1 100.93   -25 LegendNANA
05:00 Legend Double Dagger -14.5 -16.1 88 32 34 16.1 100.96   -26 LegendNANA
06:00 Legend Double Dagger -13.5 -15.2 87 32 34 16.1 100.96   -25 LegendNANA
07:00 Legend Double Dagger -13.9 -15.6 87 32 37 16.1 100.98   -26 LegendNANA
08:00 Legend Double Dagger -14.5 -16.4 86 32 35 16.1 101.00   -26 LegendNANA
09:00 Legend Double Dagger -14.8 -16.7 86 32 35 16.1 101.03   -27 LegendNANA
10:00 Legend Double Dagger -15.1 -17.1 85 33 35 16.1 101.03   -27 LegendNANA
11:00 Legend Double Dagger -14.6 -16.9 83 30 9 16.1 101.11   -20 LegendNANA
12:00 Legend Double Dagger -14.7 -17.0 83 33 28 16.1 101.07   -25 LegendNANA
13:00 Legend Double Dagger -14.9 -17.2 83 33 18 16.1 101.13   -24 LegendNANA
14:00 Legend Double Dagger -15.2 -17.4 84 32 15 16.1 101.18   -23 LegendNANA
15:00 Legend Double Dagger -16.2 -17.9 87 32 21 16.1 101.20   -26 LegendNANA
16:00 Legend Double Dagger -17.2 -19.0 86 32 24 16.1 101.23   -28 LegendNANA
17:00 Legend Double Dagger -17.4 -18.9 88 34 17 16.1 101.25   -26 LegendNANA
18:00 Legend Double Dagger -17.6 -19.0 89 33 22 16.1 101.28   -28 LegendNANA
19:00 Legend Double Dagger -19.7 -21.1 89 31 17 16.1 101.30   -29 LegendNANA
20:00 Legend Double Dagger -20.5 -21.9 89 31 17 16.1 101.29   -30 LegendNANA
21:00 Legend Double Dagger -20.7 -21.9 90 31 18 16.1 101.28   -31 LegendNANA
22:00 Legend Double Dagger -19.8 -20.9 91 30 17 16.1 101.26   -29 LegendNANA
23:00 Legend Double Dagger -19.8 -21.3 88 30 28 16.1 101.26   -32 LegendNANA

Notes on Data Quality.

Legend

  • E = Estimated
  • M = Missing
  • NA = Not Available
  • ‡ = Partner data that is not subject to review by the National Climate Archives
Date modified: